When you browse on this site, cookies collect data to enhance your experience and personalize the content and advertising you see.
Visit our Privacy Policy to learn more. By continuing to use the site, you agree to this use of cookies and data.
  • In Schweiz
  • Länderverzeichnis
  • Für 7 Tage
  • Wassertemperatur
  • Satellitenkarten
  • Wetterkarte
  • Widgets
  • user-avatar
    Anmelden

    Stündliche Wetter Ozercy

    Heute, 23 Januar, Mittwoch

    Zeit Temperatur Niederschläge Wind Luftdruck Luftfeuchtigkeit
    00:00 -19°C° 0 mm 2 m/S 755 mmHg 97%
    01:00 -19°C° 0 mm 2 m/S 755 mmHg 97%
    02:00 -13°C° 0 mm 1 m/S 754 mmHg 95%
    03:00 -14°C° 0 mm 2 m/S 754 mmHg 95%
    04:00 -14°C° 0 mm 2 m/S 754 mmHg 96%
    05:00 -14°C° 0 mm 2 m/S 754 mmHg 96%
    06:00 -13°C° 0 mm 2 m/S 753 mmHg 96%
    07:00 -13°C° 0 mm 2 m/S 753 mmHg 96%
    08:00 -13°C° 0 mm 2 m/S 753 mmHg 96%
    09:00 -12°C° 0 mm 2 m/S 753 mmHg 95%
    10:00 -10°C° 0 mm 2 m/S 753 mmHg 94%
    11:00 -12°C° 0 mm 3 m/S 753 mmHg 93%
    12:00 -10°C° 0 mm 3 m/S 753 mmHg 92%
    13:00 -9°C° 0 mm 3 m/S 753 mmHg 92%
    14:00 -8°C° 0 mm 3 m/S 753 mmHg 91%
    15:00 -7°C° 0 mm 2 m/S 753 mmHg 91%
    16:00 -7°C° 0 mm 2 m/S 753 mmHg 91%
    17:00 -7°C° 0 mm 2 m/S 753 mmHg 91%
    18:00 -7°C° 0 mm 2 m/S 753 mmHg 92%
    19:00 -8°C° 0 mm 2 m/S 753 mmHg 93%
    20:00 -8°C° 0 mm 2 m/S 753 mmHg 93%
    21:00 -8°C° 0 mm 2 m/S 753 mmHg 94%
    22:00 -9°C° 0 mm 2 m/S 753 mmHg 94%
    23:00 -12°C° 0 mm 3 m/S 753 mmHg 94%

    Morgen, 24 Januar, Donnerstag

    Zeit Temperatur Niederschläge Wind Luftdruck Luftfeuchtigkeit
    00:00 -12°C° 0 mm 2 m/S 753 mmHg 94%
    01:00 -14°C° 0 mm 2 m/S 753 mmHg 95%
    02:00 -15°C° 0 mm 2 m/S 753 mmHg 95%
    03:00 -15°C° 0 mm 2 m/S 753 mmHg 95%
    04:00 -16°C° 0 mm 2 m/S 753 mmHg 94%
    05:00 -16°C° 0 mm 2 m/S 753 mmHg 94%
    06:00 -16°C° 0 mm 2 m/S 753 mmHg 94%
    07:00 -15°C° 0 mm 2 m/S 753 mmHg 93%
    08:00 -15°C° 0 mm 2 m/S 753 mmHg 93%
    09:00 -14°C° 0 mm 2 m/S 753 mmHg 93%
    10:00 -13°C° 0 mm 2 m/S 754 mmHg 93%
    11:00 -12°C° 0 mm 2 m/S 754 mmHg 92%
    12:00 -9°C° 0 mm 1 m/S 754 mmHg 93%
    13:00 -8°C° 0 mm 1 m/S 754 mmHg 93%
    14:00 -7°C° 0 mm 1 m/S 755 mmHg 93%
    15:00 -8°C° 0 mm 1 m/S 755 mmHg 94%
    16:00 -8°C° 0 mm 0 m/S 755 mmHg 95%
    17:00 -9°C° 0 mm 0 m/S 756 mmHg 96%
    18:00 -9°C° 0 mm 1 m/S 756 mmHg 96%
    19:00 -9°C° 0 mm 1 m/S 757 mmHg 97%
    20:00 -10°C° 0 mm 1 m/S 757 mmHg 97%
    21:00 -10°C° 0 mm 1 m/S 758 mmHg 97%
    22:00 -11°C° 0 mm 1 m/S 758 mmHg 97%
    23:00 -12°C° 0 mm 1 m/S 758 mmHg 97%

    übermorgen, 25 Januar, Freitag

    Zeit Temperatur Niederschläge Wind Luftdruck Luftfeuchtigkeit
    00:00 -13°C° 0 mm 1 m/S 759 mmHg 97%
    01:00 -14°C° 0 mm 1 m/S 759 mmHg 97%
    02:00 -14°C° 0 mm 1 m/S 759 mmHg 98%
    03:00 -15°C° 0 mm 1 m/S 759 mmHg 98%
    04:00 -15°C° 0 mm 1 m/S 759 mmHg 98%
    05:00 -16°C° 0 mm 1 m/S 760 mmHg 98%
    06:00 -16°C° 0 mm 1 m/S 760 mmHg 98%
    07:00 -17°C° 0 mm 1 m/S 760 mmHg 98%
    08:00 -18°C° 0 mm 1 m/S 760 mmHg 98%
    09:00 -16°C° 0 mm 1 m/S 761 mmHg 96%
    10:00 -15°C° 0 mm 1 m/S 761 mmHg 93%
    11:00 -16°C° 0 mm 2 m/S 761 mmHg 90%
    12:00 -16°C° 0 mm 2 m/S 761 mmHg 89%
    13:00 -15°C° 0 mm 2 m/S 761 mmHg 88%
    14:00 -14°C° 0 mm 2 m/S 761 mmHg 87%
    15:00 -15°C° 0 mm 2 m/S 761 mmHg 89%
    16:00 -16°C° 0 mm 2 m/S 761 mmHg 90%
    17:00 -17°C° 0 mm 2 m/S 760 mmHg 92%
    18:00 -17°C° 0 mm 2 m/S 760 mmHg 92%
    19:00 -18°C° 0 mm 2 m/S 760 mmHg 91%
    20:00 -18°C° 0 mm 2 m/S 760 mmHg 91%
    21:00 -18°C° 0 mm 2 m/S 760 mmHg 90%
    22:00 -18°C° 0 mm 2 m/S 760 mmHg 89%
    23:00 -18°C° 0 mm 2 m/S 759 mmHg 89%

    26 Januar, Samstag

    Zeit Temperatur Niederschläge Wind Luftdruck Luftfeuchtigkeit
    00:00 -18°C° 0 mm 2 m/S 759 mmHg 88%
    01:00 -18°C° 0 mm 3 m/S 758 mmHg 88%
    02:00 -18°C° 0 mm 3 m/S 758 mmHg 88%
    03:00 -18°C° 0 mm 3 m/S 757 mmHg 87%
    04:00 -17°C° 0 mm 3 m/S 757 mmHg 86%
    05:00 -17°C° 0 mm 3 m/S 756 mmHg 85%
    06:00 -17°C° 0 mm 3 m/S 755 mmHg 84%
    07:00 -17°C° 0 mm 4 m/S 755 mmHg 84%
    08:00 -17°C° 0 mm 4 m/S 754 mmHg 83%
    09:00 -17°C° 0.5 mm 4 m/S 753 mmHg 87%
    10:00 -16°C° 0.5 mm 4 m/S 753 mmHg 90%
    11:00 -16°C° 0.5 mm 4 m/S 752 mmHg 94%
    12:00 -16°C° 0.4 mm 4 m/S 751 mmHg 93%
    13:00 -15°C° 0.4 mm 4 m/S 751 mmHg 93%
    14:00 -14°C° 0.4 mm 3 m/S 750 mmHg 92%
    15:00 -14°C° 0.3 mm 3 m/S 749 mmHg 93%
    16:00 -14°C° 0.3 mm 3 m/S 749 mmHg 93%
    17:00 -14°C° 0.3 mm 3 m/S 748 mmHg 94%
    18:00 -13°C° 0.2 mm 2 m/S 748 mmHg 94%
    19:00 -13°C° 0.2 mm 2 m/S 747 mmHg 95%
    20:00 -13°C° 0.2 mm 2 m/S 747 mmHg 95%
    21:00 -14°C° 0.1 mm 2 m/S 747 mmHg 95%
    22:00 -14°C° 0.1 mm 2 m/S 747 mmHg 96%
    23:00 -14°C° 0.1 mm 2 m/S 746 mmHg 96%

    27 Januar, Sonntag

    Zeit Temperatur Niederschläge Wind Luftdruck Luftfeuchtigkeit
    00:00 -14°C° 0.1 mm 2 m/S 746 mmHg 96%
    01:00 -14°C° 0.1 mm 2 m/S 746 mmHg 97%
    02:00 -13°C° 0.1 mm 1 m/S 746 mmHg 97%
    03:00 -12°C° 0 mm 1 m/S 745 mmHg 97%
    04:00 -12°C° 0 mm 1 m/S 745 mmHg 97%
    05:00 -12°C° 0 mm 1 m/S 745 mmHg 97%
    06:00 -12°C° 0 mm 1 m/S 745 mmHg 97%
    07:00 -13°C° 0 mm 1 m/S 745 mmHg 97%
    08:00 -15°C° 0 mm 2 m/S 745 mmHg 97%
    09:00 -14°C° 0 mm 2 m/S 745 mmHg 96%
    10:00 -13°C° 0 mm 2 m/S 745 mmHg 95%
    11:00 -12°C° 0 mm 2 m/S 745 mmHg 95%
    12:00 -10°C° 0 mm 2 m/S 745 mmHg 94%
    13:00 -9°C° 0 mm 2 m/S 745 mmHg 94%
    14:00 -8°C° 0 mm 2 m/S 745 mmHg 93%
    15:00 -9°C° 0.1 mm 3 m/S 745 mmHg 93%
    16:00 -9°C° 0.1 mm 3 m/S 745 mmHg 94%
    17:00 -8°C° 0.1 mm 3 m/S 745 mmHg 94%
    18:00 -8°C° 0.2 mm 3 m/S 745 mmHg 93%
    19:00 -7°C° 0.2 mm 3 m/S 745 mmHg 93%
    20:00 -7°C° 0.2 mm 3 m/S 745 mmHg 92%
    21:00 -7°C° 0 mm 3 m/S 746 mmHg 92%
    22:00 -7°C° 0 mm 3 m/S 746 mmHg 93%
    23:00 -6°C° 0 mm 2 m/S 746 mmHg 93%

    28 Januar, Montag

    Zeit Temperatur Niederschläge Wind Luftdruck Luftfeuchtigkeit
    00:00 -6°C° 0 mm 2 m/S 746 mmHg 93%
    01:00 -5°C° 0 mm 2 m/S 746 mmHg 93%
    02:00 -5°C° 0 mm 2 m/S 746 mmHg 93%
    03:00 -4°C° 0 mm 2 m/S 747 mmHg 93%
    04:00 -4°C° 0 mm 2 m/S 747 mmHg 92%
    05:00 -4°C° 0 mm 2 m/S 747 mmHg 92%
    06:00 -3°C° 0.1 mm 2 m/S 747 mmHg 92%
    07:00 -3°C° 0.1 mm 2 m/S 748 mmHg 93%
    08:00 -2°C° 0.1 mm 2 m/S 748 mmHg 94%
    09:00 -2°C° 0 mm 2 m/S 748 mmHg 94%
    10:00 -1°C° 0 mm 2 m/S 749 mmHg 94%
    11:00 +1°C° 0 mm 2 m/S 749 mmHg 94%
    12:00 +1°C° 0 mm 2 m/S 749 mmHg 96%
    13:00 +1°C° 0 mm 2 m/S 750 mmHg 97%
    14:00 +1°C° 0 mm 2 m/S 750 mmHg 99%
    15:00 +1°C° 0 mm 2 m/S 750 mmHg 97%
    16:00 +1°C° 0 mm 2 m/S 750 mmHg 96%
    17:00 +1°C° 0 mm 2 m/S 750 mmHg 95%
    18:00 +1°C° 0.1 mm 2 m/S 751 mmHg 95%
    19:00 +1°C° 0.1 mm 2 m/S 751 mmHg 95%
    20:00 0°C° 0.1 mm 3 m/S 751 mmHg 95%
    21:00 0°C° 0 mm 3 m/S 751 mmHg 94%
    22:00 0°C° 0 mm 3 m/S 751 mmHg 94%
    23:00 -1°C° 0 mm 3 m/S 752 mmHg 94%
    Mehr zeigen